Location: Cossonay
(46.5833°N, 6.4167°E)
Time: 21:32:53
(UTC+00:00)

STARLINK-1257 - Pass Details

Date: 06 October 2020
Orbit: 549 x 550 km, 53.0° (Epoch: 22 October)

Event Time Altitude Azimuth Distance (km) Brightness Sun altitude
Exits shadow 02:56:27 31° 104° (ESE) 975 5.2 -28.3°
Drops below altitude 10° 02:59:12 10° 71° (ENE) 1,824 7.2 -27.8°
Sets 03:01:32 0° 63° (ENE) 2,721 8.5 -27.5°
